Find Starlink 5476

NORAD ID: 57258 Int'l Des: 2023-094 Owner: SPXS Country: US Constellation: starlink operational
LEOCIRCULAR

Live Position

Loading 3D Globe...

About Starlink 5476

Description loading...

Upcoming Passes

Passes for default location (London). Set your location on the main map for personalized predictions.

Altitude History

Loading altitude history...

Two-Line Element Set

1 57258U 23094AS 26105.49872235 .00001270 00000-0 57022-4 0 9999
2 57258 43.0020 171.6410 0001187 257.9063 102.1655 15.26745966152871
Epoch: Apr 15, 2026 • Age: 18 hours

Current Status

Altitude 497.8 km
Velocity 7.62 km/s
Sub-Earth Point -42.50°S, 148.3°E
Launch Date Jul 7, 2023
Age 2.7 years
Type internet

Technical Details

Classification Payload
Mass 305.00 kg
Dry Mass 290.00 kg
Total Mass 305.00 kg
Length 0.20 m
Diameter 2.80 m
Span 9.00 m
Shape Box + pan
Manufacturer SPXS
Bus Type Starlink
Phase Status In Orbit
Owner/State SPXS/US

Most Searched